Powrót do katalogu

FENGYUN 1C DEB *

LostSSO
NORAD 47004·DEBRIS·🇨🇳 China

Wystrzelony May 10, 1999 z Taiyuan Satellite Launch Center

Loading…

Następne Przeloty (najbliższe 24 godziny)

TLE

NieaktualneSource: Space-Track

Epoka: May 7, 2024, 08:08 UTC

1 47004U 99025FAE 24128.33895784  .00004441  00000-0  24230-2 0  9990
2 47004  99.1026 173.2562 0068764 293.1768  66.2168 14.11410097648945

Śledź FENGYUN 1C DEB * w czasie rzeczywistym z AllMySat

Download on the App Store